STARLINK-2399, 47816

Orbit data source: Space-Track

STARLINK-2399, 47816 is a payload satellite owned by SpaceX/Seattle (US) in LEO that was launched on Thu, 11 Mar 2021 UTC via an FALCON 9 launch vehicle from the Air Force Eastern Test Range (AFETR). Payload-class satellites include a variety of spacecraft equipped with specific instruments for various scientific and technological missions. These include communications satellites like Starlink; space stations such as the ISS; scientific satellites like the Hubble; Earth observation satellites from companies like Planet Labs, Umbra, and HawkEye 360; GPS; miniature CubeSats for education and research; and military/defense satellites.

Loading next visibility...
Identifier
47816, 2021-018AF
Orbit
LEO
Country
Flag of USUS
Related business
Manufacturer
SpaceX/Seattle
Mission
Operational Commercial Communications
Bus & Motor
STARLINK, Unknown motor
Mass
260 kg wet, ~248 kg dry
Launch date (UTC)
2021-03-11 (5 years ago)
Launch vehicle
FALCON 9
Launch site
Air Force Eastern Test Range (AFETR)
Object type
Payload
Rocket body
Debris
Shape & HBR
Box + 1 Pan, 10.1 m
Radar Cross Section
13.562 m², Large (>1 m²)

Expand to show TLE details & history
Last TLE update: 8 hours ago

TLE from 8 hours ago
0 STARLINK-2399
1 47816U 21018AF  26120.13990595  .00007770  00000-0  28126-3 0  9993
2 47816  53.1561  18.6346 0001163  94.2256 265.8877 15.29362332284379
Epoch: 2026-04-30T03:21Z
TLE epoch observation values (Epoch: 2026-04-30T03:21:27.874Z)
Latitude
-0.00002°
Longitude
110.17765°
Altitude
478.674 km
Speed
7.627 km/s
True Right ascension
01h 14m 32s
True Declination
0° 00' 00"
Sunlit
Object was in daylight at epoch
Visualization orbit readout
Latitude
Unknown
Longitude
Unknown
Altitude
Unknown
Speed
Unknown
Apparent Right ascension
Unknown
Apparent Declination
Unknown
Sunlit
N/A
Visualization observer readout
Local Sidereal Time
18:59:34
Azimuth
Unknown
Elevation
Unknown
Doppler factor
Unknown
Orbital elements
Apogee altitude
478.772 km
Perigee altitude
477.177 km
Semi-major axis
6,856.111 km
Eccentricity
0.00012
Inclination
53.1561°
RAAN
18.6346°
Arg. of periapsis
94.2256°
True anomaly
265.87441°
Mean anomaly
265.8877°
Eccentric anomaly
265.88105°
Mean motion
3.82319 °/min
Orbital period
94.16 mins
BSTAR
0.00028126
Loading maneuver chart data...
Computing Atmospheric mass density...
Loading historical data...
Loading historical data...
Loading historical data...
Loading historical data...
Loading historical data...
Loading historical data...
Loading historical data...

Documentation

Showing up to 5 results
|